EN

Hourly Weather Vercelli

Today, 26 October, Monday

Time Temperature Precipitation Wind Pressure Humidity
00:00 +15°C° 0.3 mm 1 mps 746 mmHg 86%
01:00 +15°C° 0.3 mm 1 mps 746 mmHg 88%
02:00 +14°C° 0.2 mm 1 mps 745 mmHg 89%
03:00 +14°C° 0.2 mm 2 mps 745 mmHg 90%
04:00 +14°C° 0.2 mm 2 mps 744 mmHg 91%
05:00 +14°C° 0.2 mm 2 mps 744 mmHg 90%
06:00 +14°C° 0.2 mm 2 mps 744 mmHg 90%
07:00 +14°C° 0.2 mm 1 mps 743 mmHg 89%
08:00 +15°C° 0.2 mm 2 mps 743 mmHg 87%
09:00 +15°C° 0.2 mm 2 mps 743 mmHg 86%
10:00 +15°C° 0.2 mm 2 mps 743 mmHg 84%
11:00 +15°C° 0.6 mm 2 mps 743 mmHg 85%
12:00 +16°C° 0.6 mm 2 mps 743 mmHg 86%
13:00 +16°C° 0.6 mm 2 mps 742 mmHg 87%
14:00 +16°C° 1.1 mm 3 mps 742 mmHg 88%
15:00 +16°C° 1.1 mm 3 mps 742 mmHg 89%
16:00 +14°C° 1.1 mm 4 mps 742 mmHg 89%
17:00 +14°C° 1.2 mm 4 mps 742 mmHg 89%
18:00 +14°C° 1.2 mm 4 mps 742 mmHg 89%
19:00 +14°C° 1.2 mm 4 mps 743 mmHg 89%
20:00 +13°C° 0.9 mm 4 mps 743 mmHg 88%
21:00 +13°C° 0.9 mm 4 mps 743 mmHg 87%
22:00 +13°C° 0.9 mm 3 mps 743 mmHg 86%
23:00 +12°C° 1 mm 4 mps 744 mmHg 85%

Tomorrow, 27 October, Tuesday

Time Temperature Precipitation Wind Pressure Humidity
00:00 +11°C° 1 mm 4 mps 744 mmHg 83%
01:00 +10°C° 1 mm 4 mps 744 mmHg 81%
02:00 +10°C° 0.7 mm 4 mps 744 mmHg 82%
03:00 +10°C° 0.7 mm 3 mps 744 mmHg 82%
04:00 +10°C° 0.7 mm 3 mps 744 mmHg 83%
05:00 +10°C° 0.4 mm 2 mps 744 mmHg 83%
06:00 +10°C° 0.4 mm 2 mps 745 mmHg 84%
07:00 +10°C° 0.4 mm 2 mps 745 mmHg 84%
08:00 +10°C° 0 mm 2 mps 745 mmHg 80%
09:00 +12°C° 0 mm 2 mps 745 mmHg 75%
10:00 +13°C° 0 mm 2 mps 745 mmHg 71%
11:00 +14°C° 0 mm 2 mps 746 mmHg 65%
12:00 +15°C° 0 mm 1 mps 746 mmHg 59%
13:00 +16°C° 0 mm 1 mps 746 mmHg 53%
14:00 +16°C° 0 mm 1 mps 746 mmHg 53%
15:00 +16°C° 0 mm 1 mps 746 mmHg 52%
16:00 +16°C° 0 mm 1 mps 746 mmHg 52%
17:00 +15°C° 0 mm 1 mps 747 mmHg 57%
18:00 +14°C° 0 mm 1 mps 747 mmHg 62%
19:00 +13°C° 0 mm 1 mps 748 mmHg 67%
20:00 +12°C° 0 mm 1 mps 749 mmHg 69%
21:00 +12°C° 0 mm 1 mps 749 mmHg 70%
22:00 +11°C° 0 mm 1 mps 749 mmHg 72%
23:00 +11°C° 0 mm 1 mps 749 mmHg 72%

Day after tomorrow, 28 October, Wednesday

Time Temperature Precipitation Wind Pressure Humidity
00:00 +11°C° 0 mm 1 mps 749 mmHg 72%
01:00 +10°C° 0 mm 1 mps 749 mmHg 71%
02:00 +10°C° 0 mm 1 mps 749 mmHg 71%
03:00 +10°C° 0 mm 1 mps 749 mmHg 70%
04:00 +9°C° 0 mm 1 mps 749 mmHg 69%
05:00 +9°C° 0 mm 1 mps 750 mmHg 69%
06:00 +9°C° 0 mm 1 mps 750 mmHg 69%
07:00 +9°C° 0 mm 1 mps 750 mmHg 68%
08:00 +10°C° 0 mm 1 mps 750 mmHg 64%
09:00 +11°C° 0 mm 1 mps 750 mmHg 60%
10:00 +12°C° 0 mm 0 mps 750 mmHg 56%
11:00 +13°C° 0 mm 0 mps 750 mmHg 54%
12:00 +14°C° 0 mm 0 mps 750 mmHg 52%
13:00 +15°C° 0 mm 0 mps 750 mmHg 49%
14:00 +15°C° 0 mm 0 mps 750 mmHg 50%
15:00 +15°C° 0 mm 0 mps 750 mmHg 51%
16:00 +15°C° 0 mm 0 mps 750 mmHg 52%
17:00 +14°C° 0 mm 0 mps 750 mmHg 56%
18:00 +13°C° 0 mm 0 mps 751 mmHg 60%
19:00 +11°C° 0 mm 0 mps 751 mmHg 65%
20:00 +12°C° 0 mm 1 mps 751 mmHg 67%
21:00 +12°C° 0 mm 1 mps 752 mmHg 69%
22:00 +11°C° 0 mm 1 mps 752 mmHg 71%
23:00 +11°C° 0 mm 1 mps 752 mmHg 73%

29 October, Thursday

Time Temperature Precipitation Wind Pressure Humidity
00:00 +11°C° 0 mm 1 mps 752 mmHg 74%
01:00 +11°C° 0 mm 1 mps 752 mmHg 76%
02:00 +10°C° 0 mm 1 mps 752 mmHg 76%
03:00 +10°C° 0 mm 1 mps 752 mmHg 76%
04:00 +10°C° 0 mm 1 mps 752 mmHg 77%
05:00 +10°C° 0 mm 1 mps 752 mmHg 77%
06:00 +9°C° 0 mm 0 mps 752 mmHg 76%
07:00 +9°C° 0 mm 0 mps 752 mmHg 76%
08:00 +10°C° 0 mm 0 mps 753 mmHg 72%
09:00 +11°C° 0 mm 0 mps 753 mmHg 67%
10:00 +12°C° 0 mm 0 mps 753 mmHg 62%
11:00 +14°C° 0 mm 0 mps 753 mmHg 59%
12:00 +15°C° 0 mm 0 mps 753 mmHg 56%
13:00 +16°C° 0 mm 0 mps 753 mmHg 53%
14:00 +16°C° 0 mm 0 mps 753 mmHg 54%
15:00 +16°C° 0 mm 0 mps 753 mmHg 54%
16:00 +16°C° 0 mm 0 mps 754 mmHg 55%
17:00 +15°C° 0 mm 0 mps 754 mmHg 60%
18:00 +13°C° 0 mm 0 mps 755 mmHg 65%
19:00 +12°C° 0 mm 0 mps 755 mmHg 69%
20:00 +13°C° 0 mm 1 mps 756 mmHg 71%
21:00 +13°C° 0 mm 1 mps 756 mmHg 73%
22:00 +12°C° 0 mm 1 mps 756 mmHg 74%
23:00 +12°C° 0 mm 1 mps 756 mmHg 75%

30 October, Friday

Time Temperature Precipitation Wind Pressure Humidity
00:00 +12°C° 0 mm 1 mps 756 mmHg 76%
01:00 +12°C° 0 mm 1 mps 757 mmHg 77%
02:00 +10°C° 0 mm 0 mps 757 mmHg 77%
03:00 +10°C° 0 mm 0 mps 757 mmHg 78%
04:00 +10°C° 0 mm 0 mps 757 mmHg 78%
05:00 +10°C° 0 mm 0 mps 757 mmHg 79%
06:00 +10°C° 0 mm 0 mps 757 mmHg 79%
07:00 +9°C° 0 mm 0 mps 757 mmHg 80%
08:00 +11°C° 0 mm 0 mps 757 mmHg 74%
09:00 +12°C° 0 mm 0 mps 757 mmHg 69%
10:00 +13°C° 0 mm 0 mps 757 mmHg 64%
11:00 +14°C° 0 mm 0 mps 757 mmHg 61%
12:00 +15°C° 0 mm 0 mps 757 mmHg 57%
13:00 +16°C° 0 mm 0 mps 757 mmHg 54%
14:00 +16°C° 0 mm 0 mps 757 mmHg 54%
15:00 +16°C° 0 mm 0 mps 756 mmHg 55%
16:00 +16°C° 0 mm 0 mps 756 mmHg 56%
17:00 +15°C° 0 mm 0 mps 756 mmHg 61%
18:00 +14°C° 0 mm 0 mps 757 mmHg 65%
19:00 +13°C° 0 mm 0 mps 757 mmHg 70%
20:00 +12°C° 0 mm 0 mps 757 mmHg 72%
21:00 +12°C° 0 mm 0 mps 757 mmHg 74%
22:00 +13°C° 0 mm 1 mps 757 mmHg 75%
23:00 +11°C° 0 mm 0 mps 757 mmHg 76%

31 October, Saturday

Time Temperature Precipitation Wind Pressure Humidity
00:00 +11°C° 0 mm 0 mps 757 mmHg 77%
01:00 +11°C° 0 mm 0 mps 756 mmHg 78%
02:00 +10°C° 0 mm 0 mps 756 mmHg 79%
03:00 +11°C° 0 mm 1 mps 756 mmHg 79%
04:00 +11°C° 0 mm 1 mps 756 mmHg 79%
05:00 +11°C° 0 mm 1 mps 756 mmHg 79%
06:00 +11°C° 0 mm 1 mps 756 mmHg 79%
07:00 +11°C° 0 mm 1 mps 756 mmHg 78%
Show more

We Need Your Consent

Meteoprog and our Service Providers may store and access personal data such as cookies, device identifiers or other similar technologies on your device and process such data to personalise content and ads, as well as provide social media features and to analyse the traffic.

  • Store and/or access information on your device

    Cookies, device identifiers or other information can be stored or accessed on your device for the purposes indicated above.

  • Personalised ads and content, ad and content measurement, audience insights, and products development

    Ads and content can be personalised based on a profile. More data can be added to better personalise ads and content. Ad and content performance can be measured. Insights about the audience who saw the ads and content can be derived. Such data can be used to develop or improve user’s experience, systems and software.

By clicking ‘I Agree’ you will allow the use of indicated cookies, device identifiers, web beacons or other similar technologies. Your settings can be changed in the browser on your device.

For certain purposes, legitimate interests may be relied on, rather than consent. You can read more about this in our Privacy and Cookie Policy.